This is the latest recevied weather packets stored in our database for station/object NM5PB. If no packets are shown the sender has not sent any weather packets the latest 10 day(s).
| Time | Temp. | Humidity | Pressure | Rain* | Wind** | Luminosity | Snow |
|---|---|---|---|---|---|---|---|
| 1777653064 | 10° C | 64% | - | 0 mm | - | - | - |
| 1777652464 | 8.89° C | 65% | - | 0 mm | - | - | - |
| 1777651864 | 8.33° C | 71% | - | 0 mm | - | - | - |
| 1777651264 | 8.89° C | 70% | - | 0 mm | - | - | - |
| 1777650664 | 8.89° C | 67% | - | 0 mm | - | - | - |
| 1777650064 | 8.33° C | 65% | - | 0 mm | - | - | - |
| 1777649464 | 7.78° C | 69% | - | 0 mm | - | - | - |
| 1777648864 | 7.78° C | 70% | - | 0 mm | - | - | - |
| 1777648264 | 7.78° C | 69% | - | 0 mm | - | - | - |
| 1777647664 | 7.78° C | 66% | - | 0 mm | - | - | - |
| 1777647064 | 7.78° C | 66% | - | 0 mm | - | - | - |
| 1777646464 | 7.78° C | 66% | - | 0 mm | - | - | - |
| 1777645864 | 7.78° C | 65% | - | 0 mm | - | - | - |
| 1777645264 | 7.22° C | 65% | - | 0 mm | - | - | - |
| 1777644664 | 7.22° C | 64% | - | 0 mm | - | - | - |
| 1777644064 | 7.22° C | 64% | - | 0 mm | - | - | - |
| 1777643464 | 7.22° C | 65% | - | 0 mm | - | - | - |
| 1777642864 | 6.67° C | 64% | - | 0 mm | - | - | - |
| 1777642264 | 6.67° C | 68% | - | 0 mm | - | - | - |
| 1777641664 | 6.11° C | 71% | - | 0 mm | - | - | - |
| 1777641064 | 6.11° C | 76% | - | 0 mm | - | - | - |
| 1777640464 | 5.56° C | 76% | - | 0 mm | - | - | - |
| 1777639864 | 5.56° C | 76% | - | 0 mm | - | - | - |
| 1777639264 | 5° C | 80% | - | 0 mm | - | - | - |
| 1777638664 | 5° C | 80% | - | 0 mm | - | - | - |
* Rain latest hour (hover to see other rain measurements)
** Current wind speed in m/s (hover to see current wind gust speed)